Starlink 32512

operational
NORAD ID: 62027 Int'l Des: 2024-213 Owner: SPXS Country: US Constellation: starlink
LEOCIRCULAR

About Starlink 32512

Description loading...

Live Position

Loading 3D Globe...

Upcoming Passes

Altitude History

Altitude vs Time

uPlot chart will show altitude changes over time

Two-Line Element Set

1 62027U 24213V 25305.44966155 .00028783 00000-0 97959-3 0 9994
2 62027 53.1598 43.5780 0001364 75.0785 285.0367 15.30219254 53521
Epoch: Nov 1, 2025 • Age: 26 hours

Current Status

Altitude 475.1 km
Velocity 7.63 km/s
Sub-Earth Point 16.57°N, 24.72°W
Launch Date Nov 18, 2024
Age 0.9 years
Type internet

Technical Details

Classification Payload
Mass 730.00 kg
Dry Mass 700.00 kg
Total Mass 730.00 kg
Length 0.30 m
Diameter 4.10 m
Span 29.00 m
Shape Box + pan
Manufacturer SPXS
Bus Type Starlink V2M
Phase Status In Orbit
Owner/State SPXS/US

Large Constellations

Loading constellations...